Time,TemperatureF,DewpointF,PressureIn,WindDirection,WindDirectionDegrees,WindSpeedMPH,WindSpeedGustMPH,Humidity,HourlyPrecipIn,Conditions,Clouds,dailyrainin,SoftwareType,DateUTC
2013-01-25 00:06:00,22.5,5.0,30.55,ENE,74,2.0,-999.0,48,-99.99,,,0.00,weatherlink.com 1.10,2013-01-25 05:06:00,
2013-01-25 00:21:00,22.4,4.0,30.55,NW,316,1.0,-999.0,46,-99.99,,,0.00,weatherlink.com 1.10,2013-01-25 05:21:00,
2013-01-25 00:36:00,22.3,5.0,30.55,East,85,1.0,-999.0,47,-99.99,,,0.00,weatherlink.com 1.10,2013-01-25 05:36:00,
2013-01-25 00:51:00,22.3,4.0,30.55,East,82,0.0,-999.0,46,-99.99,,,0.00,weatherlink.com 1.10,2013-01-25 05:51:00,
2013-01-25 01:06:00,22.2,5.0,30.54,NE,46,1.0,-999.0,47,-99.99,,,0.00,weatherlink.com 1.10,2013-01-25 06:06:00,
2013-01-25 01:21:00,22.2,4.0,30.55,East,101,0.0,-999.0,46,-99.99,,,0.00,weatherlink.com 1.10,2013-01-25 06:21:00,
2013-01-25 01:36:00,21.9,4.0,30.56,East,88,0.0,-999.0,46,-99.99,,,0.00,weatherlink.com 1.10,2013-01-25 06:36:00,
2013-01-25 01:51:00,21.7,4.0,30.56,NE,37,1.0,-999.0,47,-99.99,,,0.00,weatherlink.com 1.10,2013-01-25 06:51:00,
2013-01-25 02:06:00,21.6,3.0,30.55,SSE,162,0.0,-999.0,45,-99.99,,,0.00,weatherlink.com 1.10,2013-01-25 07:06:00,
2013-01-25 02:21:00,21.2,3.0,30.55,ENE,74,0.0,-999.0,46,-99.99,,,0.00,weatherlink.com 1.10,2013-01-25 07:21:00,
2013-01-25 02:36:00,21.2,3.0,30.54,NE,37,1.0,-999.0,46,-99.99,,,0.00,weatherlink.com 1.10,2013-01-25 07:36:00,
2013-01-25 02:51:00,21.0,4.0,30.54,ESE,103,0.0,-999.0,47,-99.99,,,0.00,weatherlink.com 1.10,2013-01-25 07:51:00,
2013-01-25 03:06:00,20.9,4.0,30.54,SE,143,0.0,-999.0,49,-99.99,,,0.00,weatherlink.com 1.10,2013-01-25 08:06:00,
2013-01-25 03:21:00,20.8,5.0,30.54,SW,226,1.0,-999.0,50,-99.99,,,0.00,weatherlink.com 1.10,2013-01-25 08:21:00,
2013-01-25 03:36:00,20.6,4.0,30.54,SW,226,0.0,-999.0,49,-99.99,,,0.00,weatherlink.com 1.10,2013-01-25 08:36:00,
2013-01-25 03:51:00,20.8,5.0,30.54,SW,217,0.0,-999.0,50,-99.99,,,0.00,weatherlink.com 1.10,2013-01-25 08:51:00,
2013-01-25 04:06:00,20.9,4.0,30.54,SW,217,0.0,-999.0,49,-99.99,,,0.00,weatherlink.com 1.10,2013-01-25 09:06:00,
2013-01-25 04:21:00,21.1,5.0,30.53,South,179,1.0,-999.0,49,-99.99,,,0.00,weatherlink.com 1.10,2013-01-25 09:21:00,
2013-01-25 04:36:00,21.4,5.0,30.52,South,177,0.0,-999.0,49,-99.99,,,0.00,weatherlink.com 1.10,2013-01-25 09:36:00,
2013-01-25 04:51:00,21.5,4.0,30.51,South,176,0.0,-999.0,48,-99.99,,,0.00,weatherlink.com 1.10,2013-01-25 09:51:00,
2013-01-25 05:21:00,21.4,4.0,30.52,SSW,208,3.0,-999.0,47,-99.99,,,0.00,weatherlink.com 1.10,2013-01-25 10:21:00,
2013-01-25 05:36:00,21.6,4.0,30.50,SSW,210,2.0,-999.0,46,-99.99,,,0.00,weatherlink.com 1.10,2013-01-25 10:36:00,
2013-01-25 05:51:00,21.7,4.0,30.51,ENE,62,2.0,-999.0,47,-99.99,,,0.00,weatherlink.com 1.10,2013-01-25 10:51:00,
2013-01-25 06:06:00,21.7,4.0,30.50,South,189,3.0,-999.0,46,-99.99,,,0.00,weatherlink.com 1.10,2013-01-25 11:06:00,
2013-01-25 06:21:00,21.7,4.0,30.50,West,274,3.0,-999.0,46,-99.99,,,0.00,weatherlink.com 1.10,2013-01-25 11:21:00,
2013-01-25 06:36:00,21.7,4.0,30.50,South,179,3.0,-999.0,47,-99.99,,,0.00,weatherlink.com 1.10,2013-01-25 11:36:00,
2013-01-25 06:51:00,21.6,5.0,30.49,SSE,163,3.0,-999.0,48,-99.99,,,0.00,weatherlink.com 1.10,2013-01-25 11:51:00,
2013-01-25 07:06:00,21.5,4.0,30.51,SE,132,3.0,-999.0,48,-99.99,,,0.00,weatherlink.com 1.10,2013-01-25 12:06:00,
2013-01-25 07:21:00,21.5,5.0,30.50,SSE,155,4.0,-999.0,50,-99.99,,,0.00,weatherlink.com 1.10,2013-01-25 12:21:00,
2013-01-25 07:36:00,21.3,5.0,30.49,SW,224,1.0,-999.0,49,-99.99,,,0.00,weatherlink.com 1.10,2013-01-25 12:36:00,
2013-01-25 07:51:00,21.2,6.0,30.49,SSW,195,2.0,-999.0,52,-99.99,,,0.00,weatherlink.com 1.10,2013-01-25 12:51:00,
2013-01-25 08:06:00,21.0,6.0,30.49,SSE,163,1.0,-999.0,52,-99.99,,,0.00,weatherlink.com 1.10,2013-01-25 13:06:00,
2013-01-25 08:21:00,21.0,7.0,30.49,South,180,2.0,-999.0,54,-99.99,,,0.00,weatherlink.com 1.10,2013-01-25 13:21:00,
2013-01-25 08:36:00,21.1,8.0,30.49,SSE,150,2.0,-999.0,57,-99.99,,,0.00,weatherlink.com 1.10,2013-01-25 13:36:00,
2013-01-25 08:51:00,20.8,9.0,30.48,SW,219,4.0,-999.0,60,-99.99,,,0.00,weatherlink.com 1.10,2013-01-25 13:51:00,
2013-01-25 09:06:00,20.9,9.0,30.49,SSE,153,2.0,-999.0,60,-99.99,,,0.00,weatherlink.com 1.10,2013-01-25 14:06:00,
2013-01-25 09:21:00,20.7,10.0,30.49,SW,226,6.0,-999.0,63,-99.99,,,0.00,weatherlink.com 1.10,2013-01-25 14:21:00,
2013-01-25 09:36:00,20.6,10.0,30.49,SSW,211,3.0,-999.0,65,-99.99,,,0.00,weatherlink.com 1.10,2013-01-25 14:36:00,
2013-01-25 09:51:00,20.2,12.0,30.48,ESE,121,2.0,-999.0,70,-99.99,,,0.00,weatherlink.com 1.10,2013-01-25 14:51:00,
2013-01-25 10:06:00,20.2,13.0,30.47,SSE,150,1.0,-999.0,74,-99.99,,,0.00,weatherlink.com 1.10,2013-01-25 15:06:00,
2013-01-25 10:21:00,20.2,13.0,30.47,SSW,205,2.0,-999.0,75,-99.99,,,0.00,weatherlink.com 1.10,2013-01-25 15:21:00,
2013-01-25 10:36:00,20.2,13.0,30.47,South,169,3.0,-999.0,75,-99.99,,,0.00,weatherlink.com 1.10,2013-01-25 15:36:00,
2013-01-25 10:51:00,20.2,14.0,30.45,South,172,3.0,-999.0,76,-99.99,,,0.00,weatherlink.com 1.10,2013-01-25 15:51:00,
2013-01-25 11:06:00,20.7,15.0,30.45,SSE,160,4.0,-999.0,77,-99.99,,,0.00,weatherlink.com 1.10,2013-01-25 16:06:00,
2013-01-25 11:21:00,20.6,14.0,30.45,South,172,3.0,-999.0,77,-99.99,,,0.00,weatherlink.com 1.10,2013-01-25 16:21:00,
2013-01-25 11:36:00,20.6,15.0,30.43,SSE,155,1.0,-999.0,79,-99.99,,,0.00,weatherlink.com 1.10,2013-01-25 16:36:00,
2013-01-25 11:51:00,20.3,15.0,30.43,South,187,2.0,-999.0,79,-99.99,,,0.00,weatherlink.com 1.10,2013-01-25 16:51:00,
2013-01-25 12:06:00,20.3,16.0,30.40,South,170,4.0,-999.0,82,-99.99,,,0.00,weatherlink.com 1.10,2013-01-25 17:06:00,
2013-01-25 12:21:00,20.3,17.0,30.39,South,179,5.0,-999.0,85,-99.99,,,0.00,weatherlink.com 1.10,2013-01-25 17:21:00,
2013-01-25 12:36:00,20.0,16.0,30.38,SW,235,3.0,-999.0,84,-99.99,,,0.00,weatherlink.com 1.10,2013-01-25 17:36:00,
2013-01-25 12:51:00,20.0,17.0,30.36,SSW,198,2.0,-999.0,86,-99.99,,,0.00,weatherlink.com 1.10,2013-01-25 17:51:00,
2013-01-25 13:06:00,20.2,18.0,30.36,SE,141,0.0,-999.0,89,-99.99,,,0.00,weatherlink.com 1.10,2013-01-25 18:06:00,
2013-01-25 13:21:00,20.8,19.0,30.36,SSW,210,3.0,-999.0,92,-99.99,,,0.00,weatherlink.com 1.10,2013-01-25 18:21:00,
2013-01-25 13:36:00,22.0,20.0,30.34,ESE,117,2.0,-999.0,93,-99.99,,,0.00,weatherlink.com 1.10,2013-01-25 18:36:00,
2013-01-25 13:51:00,22.5,21.0,30.34,NW,304,4.0,-999.0,93,-99.99,,,0.00,weatherlink.com 1.10,2013-01-25 18:51:00,
2013-01-25 14:06:00,22.4,21.0,30.32,SE,146,2.0,-999.0,93,-99.99,,,0.00,weatherlink.com 1.10,2013-01-25 19:06:00,
2013-01-25 14:21:00,22.8,21.0,30.32,South,181,4.0,-999.0,93,-99.99,,,0.00,weatherlink.com 1.10,2013-01-25 19:21:00,
2013-01-25 14:36:00,22.8,21.0,30.30,South,176,6.0,-999.0,93,-99.99,,,0.00,weatherlink.com 1.10,2013-01-25 19:36:00,
2013-01-25 14:51:00,22.9,22.0,30.30,SW,231,4.0,-999.0,94,-99.99,,,0.00,weatherlink.com 1.10,2013-01-25 19:51:00,
2013-01-25 15:06:00,23.2,22.0,30.29,South,179,0.0,-999.0,94,-99.99,,,0.00,weatherlink.com 1.10,2013-01-25 20:06:00,
2013-01-25 15:21:00,23.5,22.0,30.29,SW,235,1.0,-999.0,94,-99.99,,,0.00,weatherlink.com 1.10,2013-01-25 20:21:00,
2013-01-25 15:36:00,23.6,22.0,30.28,SSE,155,5.0,-999.0,94,-99.99,,,0.00,weatherlink.com 1.10,2013-01-25 20:36:00,
2013-01-25 15:51:00,23.2,22.0,30.27,South,186,2.0,-999.0,94,-99.99,,,0.00,weatherlink.com 1.10,2013-01-25 20:51:00,
2013-01-25 16:06:00,23.1,22.0,30.26,SW,227,1.0,-999.0,94,-99.99,,,0.00,weatherlink.com 1.10,2013-01-25 21:06:00,
2013-01-25 16:21:00,23.1,22.0,30.26,SSE,156,0.0,-999.0,94,-99.99,,,0.00,weatherlink.com 1.10,2013-01-25 21:21:00,
2013-01-25 16:36:00,23.0,22.0,30.26,SW,218,1.0,-999.0,94,-99.99,,,0.00,weatherlink.com 1.10,2013-01-25 21:36:00,
2013-01-25 16:51:00,23.0,22.0,30.26,WSW,257,3.0,-999.0,94,-99.99,,,0.00,weatherlink.com 1.10,2013-01-25 21:51:00,
2013-01-25 17:06:00,23.0,22.0,30.25,West,278,5.0,-999.0,94,-99.99,,,0.00,weatherlink.com 1.10,2013-01-25 22:06:00,
2013-01-25 17:21:00,23.0,22.0,30.25,South,169,0.0,-999.0,94,-99.99,,,0.00,weatherlink.com 1.10,2013-01-25 22:21:00,
2013-01-25 17:36:00,23.1,22.0,30.25,West,264,3.0,-999.0,94,-99.99,,,0.00,weatherlink.com 1.10,2013-01-25 22:36:00,
2013-01-25 17:51:00,23.0,22.0,30.25,WSW,254,3.0,-999.0,95,-99.99,,,0.00,weatherlink.com 1.10,2013-01-25 22:51:00,
2013-01-25 18:06:00,23.2,22.0,30.25,WSW,256,1.0,-999.0,95,-99.99,,,0.00,weatherlink.com 1.10,2013-01-25 23:06:00,
2013-01-25 18:21:00,23.2,22.0,30.25,WNW,287,0.0,-999.0,95,-99.99,,,0.00,weatherlink.com 1.10,2013-01-25 23:21:00,
2013-01-25 18:36:00,23.4,22.0,30.25,NW,308,2.0,-999.0,95,-99.99,,,0.00,weatherlink.com 1.10,2013-01-25 23:36:00,
2013-01-25 18:51:00,23.4,22.0,30.25,NW,306,1.0,-999.0,95,-99.99,,,0.00,weatherlink.com 1.10,2013-01-25 23:51:00,
2013-01-25 19:06:00,23.5,22.0,30.26,WNW,303,0.0,-999.0,95,-99.99,,,0.00,weatherlink.com 1.10,2013-01-26 00:06:00,
2013-01-25 19:21:00,24.0,23.0,30.25,North,351,4.0,-999.0,95,-99.99,,,0.00,weatherlink.com 1.10,2013-01-26 00:21:00,
2013-01-25 19:36:00,24.3,23.0,30.25,NW,313,0.0,-999.0,95,-99.99,,,0.00,weatherlink.com 1.10,2013-01-26 00:36:00,
2013-01-25 19:51:00,25.9,25.0,30.25,ENE,57,2.0,-999.0,96,-99.99,,,0.00,weatherlink.com 1.10,2013-01-26 00:51:00,
2013-01-25 20:06:00,26.3,25.0,30.24,ENE,70,1.0,-999.0,96,-99.99,,,0.00,weatherlink.com 1.10,2013-01-26 01:06:00,
2013-01-25 20:21:00,30.6,30.0,30.25,ESE,114,0.0,-999.0,97,-99.99,,,0.00,weatherlink.com 1.10,2013-01-26 01:21:00,
2013-01-25 20:36:00,31.8,31.0,30.25,NNW,346,1.0,-999.0,97,-99.99,,,0.00,weatherlink.com 1.10,2013-01-26 01:36:00,
2013-01-25 20:51:00,33.1,32.0,30.25,NW,320,2.0,-999.0,97,-99.99,,,0.00,weatherlink.com 1.10,2013-01-26 01:51:00,
2013-01-25 21:06:00,35.9,35.0,30.25,NW,313,4.0,-999.0,98,-99.99,,,0.00,weatherlink.com 1.10,2013-01-26 02:06:00,
2013-01-25 21:21:00,36.7,36.0,30.24,NNW,328,1.0,-999.0,98,-99.99,,,0.00,weatherlink.com 1.10,2013-01-26 02:21:00,
2013-01-25 21:36:00,37.1,37.0,30.25,WNW,297,1.0,-999.0,98,-99.99,,,0.01,weatherlink.com 1.10,2013-01-26 02:36:00,
2013-01-25 21:51:00,37.0,37.0,30.24,SSW,201,0.0,-999.0,98,-99.99,,,0.01,weatherlink.com 1.10,2013-01-26 02:51:00,
2013-01-25 22:06:00,36.9,36.0,30.25,NW,320,0.0,-999.0,98,-99.99,,,0.01,weatherlink.com 1.10,2013-01-26 03:06:00,
2013-01-25 22:21:00,38.3,38.0,30.24,NNE,13,1.0,-999.0,98,-99.99,,,0.02,weatherlink.com 1.10,2013-01-26 03:21:00,
2013-01-25 22:36:00,38.7,38.0,30.25,NW,318,2.0,-999.0,98,-99.99,,,0.03,weatherlink.com 1.10,2013-01-26 03:36:00,
2013-01-25 22:51:00,38.8,38.0,30.25,NNW,330,3.0,-999.0,98,-99.99,,,0.03,weatherlink.com 1.10,2013-01-26 03:51:00,
2013-01-25 23:06:00,39.3,39.0,30.24,NW,314,2.0,-999.0,98,-99.99,,,0.04,weatherlink.com 1.10,2013-01-26 04:06:00,
2013-01-25 23:21:00,40.1,40.0,30.24,NNW,348,2.0,-999.0,98,-99.99,,,0.04,weatherlink.com 1.10,2013-01-26 04:21:00,
2013-01-25 23:36:00,39.5,39.0,30.24,NNE,12,2.0,-999.0,96,-99.99,,,0.05,weatherlink.com 1.10,2013-01-26 04:36:00,
2013-01-25 23:51:00,40.5,39.0,30.25,WNW,290,4.0,-999.0,95,-99.99,,,0.05,weatherlink.com 1.10,2013-01-26 04:51:00,